timestamp,surface_pressure_avg,surface_temp_avg,battery_voltage,lat,long
2020-12-28 00:09:01+00:00,291.4297,4.54,12.65,47.84626,-54.09684
2020-12-28 00:19:01+00:00,284.9064,4.51,12.65,47.84626,-54.09684
2020-12-28 00:29:01+00:00,282.163,4.5,12.65,47.84626,-54.09684
2020-12-28 00:39:01+00:00,277.3014,4.5,12.65,47.84626,-54.09684
2020-12-28 00:49:01+00:00,271.1631,4.5,12.65,47.84626,-54.09684
2020-12-28 00:59:01+00:00,267.5981,4.5,12.65,47.84626,-54.09684
2020-12-28 01:09:01+00:00,262.6847,4.5,12.65,47.84626,-54.09684
2020-12-28 01:19:01+00:00,254.6014,4.5,12.57,47.84626,-54.09684
2020-12-28 01:29:01+00:00,247.0814,4.5,12.57,47.84626,-54.09684
2020-12-28 01:39:01+00:00,242.1514,4.5,12.57,47.84626,-54.09684
2020-12-28 01:49:01+00:00,231.568,4.5,12.57,47.84626,-54.09684
2020-12-28 01:59:01+00:00,225.7548,4.5,12.57,47.84626,-54.09684
2020-12-28 02:09:01+00:00,220.0882,4.5,12.57,47.84626,-54.09684
2020-12-28 02:19:01+00:00,212.4381,4.5,12.57,47.84626,-54.09684
2020-12-28 02:29:01+00:00,207.4948,4.5,12.57,47.84626,-54.09684
2020-12-28 02:39:01+00:00,206.7848,4.5,12.57,47.84626,-54.09684
2020-12-28 02:49:01+00:00,203.6964,4.46,12.57,47.84626,-54.09684
2020-12-28 02:59:01+00:00,199.8598,4.44,12.57,47.84626,-54.09684
2020-12-28 03:09:01+00:00,197.8164,4.42,12.57,47.84626,-54.09684
2020-12-28 03:19:01+00:00,194.1531,4.4,12.57,47.84626,-54.09684
2020-12-28 03:29:01+00:00,187.9615,4.39,12.57,47.84626,-54.09684
2020-12-28 03:39:01+00:00,187.2431,4.34,12.57,47.84626,-54.09684
2020-12-28 03:49:01+00:00,191.8364,4.36,12.57,47.84626,-54.09684
2020-12-28 03:59:01+00:00,191.4365,4.34,12.57,47.84626,-54.09684
2020-12-28 04:09:01+00:00,192.4781,4.4,12.57,47.84626,-54.09684
2020-12-28 04:19:01+00:00,198.7148,4.47,12.57,47.84626,-54.09684
2020-12-28 04:29:01+00:00,200.4415,4.5,12.57,47.84626,-54.09684
2020-12-28 04:39:01+00:00,196.8665,4.5,12.57,47.84626,-54.09684
2020-12-28 04:49:01+00:00,199.2765,4.5,12.57,47.84626,-54.09684
2020-12-28 04:59:01+00:00,205.9698,4.5,12.57,47.84626,-54.09684
2020-12-28 05:09:01+00:00,208.0881,4.55,12.57,47.84626,-54.09684
2020-12-28 05:19:01+00:00,210.5114,4.57,12.57,47.84626,-54.09684
2020-12-28 05:29:01+00:00,216.7731,4.59,12.57,47.84626,-54.09684
2020-12-28 05:39:01+00:00,220.5314,4.6,12.57,47.84626,-54.09684
2020-12-28 05:49:01+00:00,223.9281,4.59,12.57,47.84626,-54.09684
2020-12-28 05:59:01+00:00,232.1831,4.6,12.57,47.84626,-54.09684
2020-12-28 06:09:01+00:00,235.8897,4.6,12.57,47.84626,-54.09684
2020-12-28 06:19:01+00:00,236.6748,4.6,12.57,47.84626,-54.09684
2020-12-28 06:29:01+00:00,240.9414,4.6,12.57,47.84626,-54.09684
2020-12-28 06:39:01+00:00,246.5831,4.6,12.57,47.84626,-54.09684
2020-12-28 06:49:01+00:00,246.8331,4.6,12.57,47.84626,-54.09684
2020-12-28 06:59:01+00:00,252.0965,4.6,12.57,47.84626,-54.09684
2020-12-28 07:09:01+00:00,256.9664,4.6,12.57,47.84626,-54.09684
2020-12-28 07:19:01+00:00,259.9114,4.6,12.49,47.84626,-54.09684
2020-12-28 07:29:01+00:00,263.923,4.6,12.49,47.84626,-54.09684
2020-12-28 07:39:01+00:00,276.863,4.6,12.49,47.84626,-54.09684
2020-12-28 07:49:01+00:00,282.9614,4.6,12.49,47.84626,-54.09684
2020-12-28 07:59:01+00:00,284.818,4.6,12.49,47.84626,-54.09684
2020-12-28 08:09:01+00:00,291.158,4.6,12.49,47.84626,-54.09684
2020-12-28 08:19:01+00:00,302.8414,4.66,12.49,47.84626,-54.09684
2020-12-28 08:29:01+00:00,303.5264,4.6,12.49,47.84626,-54.09684
2020-12-28 08:39:01+00:00,302.498,4.6,12.49,47.84626,-54.09684
2020-12-28 08:49:01+00:00,311.2814,4.64,12.49,47.84626,-54.09684
2020-12-28 08:59:01+00:00,318.6496,4.67,12.49,47.84626,-54.09684
2020-12-28 09:09:01+00:00,315.6362,4.66,12.49,47.84626,-54.09684
2020-12-28 09:19:01+00:00,317.4947,4.66,12.49,47.84626,-54.09684
2020-12-28 09:29:01+00:00,327.8230000000001,4.65,12.49,47.84626,-54.09684
2020-12-28 09:39:01+00:00,331.6964,4.67,12.49,47.84626,-54.09684
2020-12-28 09:49:01+00:00,330.0263,4.66,12.49,47.84626,-54.09684
2020-12-28 09:59:01+00:00,335.3531,4.66,12.49,47.84626,-54.09684
2020-12-28 10:09:01+00:00,339.2563,4.68,12.49,47.84626,-54.09684
2020-12-28 10:19:01+00:00,339.3279,4.69,12.49,47.84626,-54.09684
2020-12-28 10:29:01+00:00,339.9996,4.69,12.49,47.84626,-54.09684
2020-12-28 10:39:01+00:00,339.593,4.69,12.49,47.84626,-54.09684
2020-12-28 10:49:01+00:00,338.6263,4.69,12.49,47.84626,-54.09684
2020-12-28 10:59:01+00:00,340.8929,4.69,12.49,47.84626,-54.09684
2020-12-28 11:09:01+00:00,345.5179,4.68,12.49,47.84626,-54.09684
2020-12-28 11:19:01+00:00,346.6931,4.69,12.49,47.84626,-54.09684
2020-12-28 11:29:01+00:00,343.9179,4.68,12.49,47.84626,-54.09684
2020-12-28 11:39:01+00:00,342.0462,4.69,12.49,47.84626,-54.09684
2020-12-28 11:49:01+00:00,342.6446,4.68,12.49,47.84626,-54.09684
2020-12-28 11:59:01+00:00,338.6412,4.68,12.49,47.84626,-54.09684
2020-12-28 12:09:01+00:00,335.9362,4.68,12.49,47.84626,-54.09684
2020-12-28 12:19:01+00:00,333.1663,4.69,13.84,47.84626,-54.09684
2020-12-28 12:29:01+00:00,331.39300000000014,4.68,13.84,47.84626,-54.09684
2020-12-28 12:39:01+00:00,322.4963,4.68,13.84,47.84626,-54.09684
2020-12-28 12:49:01+00:00,313.358,4.68,13.84,47.84626,-54.09684
2020-12-28 12:59:01+00:00,308.6364,4.68,13.84,47.84626,-54.09684
2020-12-28 13:09:01+00:00,302.2614,4.63,13.84,47.84626,-54.09684
2020-12-28 13:19:01+00:00,292.7014,4.66,14.64,47.84626,-54.09684
2020-12-28 13:29:01+00:00,286.8014,4.66,14.64,47.84626,-54.09684
2020-12-28 13:39:01+00:00,279.7347,4.66,14.64,47.84626,-54.09684
2020-12-28 13:49:01+00:00,271.0864,4.65,14.64,47.84626,-54.09684
2020-12-28 13:59:01+00:00,265.4681,4.62,14.64,47.84626,-54.09684
2020-12-28 14:09:01+00:00,258.5614,4.62,14.64,47.84626,-54.09684
2020-12-28 14:19:01+00:00,250.7515,4.65,14.72,47.84626,-54.09684
2020-12-28 14:29:01+00:00,246.2147,4.65,14.72,47.84626,-54.09684
2020-12-28 14:39:01+00:00,242.8081,4.65,14.72,47.84626,-54.09684
2020-12-28 14:49:01+00:00,231.2481,4.67,14.72,47.84626,-54.09684
2020-12-28 14:59:01+00:00,221.1048,4.64,14.72,47.84626,-54.09684
2020-12-28 15:09:01+00:00,219.2981,4.64,14.72,47.84626,-54.09684
2020-12-28 15:19:01+00:00,214.7031,4.65,14.72,47.84626,-54.09684
2020-12-28 15:29:01+00:00,206.1431,4.64,14.72,47.84626,-54.09684
2020-12-28 15:39:01+00:00,201.9198,4.63,14.72,47.84626,-54.09684
2020-12-28 15:49:01+00:00,202.8047,4.64,14.72,47.84626,-54.09684
2020-12-28 15:59:01+00:00,200.9898,4.66,14.72,47.84626,-54.09684
2020-12-28 16:09:01+00:00,196.2464,4.67,14.72,47.84626,-54.09684
2020-12-28 16:19:01+00:00,195.2148,4.69,14.48,47.84626,-54.09684
2020-12-28 16:29:01+00:00,197.6748,4.7,14.48,47.84626,-54.09684
2020-12-28 16:39:01+00:00,198.4415,4.7,14.48,47.84626,-54.09684
2020-12-28 16:49:01+00:00,199.4481,4.7,14.48,47.84626,-54.09684
2020-12-28 16:59:01+00:00,200.7548,4.7,14.48,47.84626,-54.09684
2020-12-28 17:09:01+00:00,198.8614,4.7,14.48,47.84626,-54.09684
2020-12-28 17:19:01+00:00,200.4665,4.7,14.48,47.84626,-54.09684
2020-12-28 17:29:01+00:00,204.5565,4.7,14.48,47.84626,-54.09684
2020-12-28 17:39:01+00:00,204.1331,4.7,14.48,47.84626,-54.09684
2020-12-28 17:49:01+00:00,200.1065,4.7,14.48,47.84626,-54.09684
2020-12-28 17:59:01+00:00,202.9281,4.7,14.48,47.84626,-54.09684
2020-12-28 18:09:01+00:00,207.8481,4.7,14.48,47.84626,-54.09684
2020-12-28 18:19:01+00:00,207.2681,4.7,14.4,47.84626,-54.09684
2020-12-28 18:29:01+00:00,209.6981,4.7,14.4,47.84626,-54.09684
2020-12-28 18:39:01+00:00,214.3281,4.7,14.4,47.84626,-54.09684
2020-12-28 18:49:01+00:00,217.5031,4.7,14.4,47.84626,-54.09684
2020-12-28 18:59:01+00:00,219.4398,4.7,14.4,47.84626,-54.09684
2020-12-28 19:09:01+00:00,224.0881,4.7,14.4,47.84626,-54.09684
2020-12-28 19:19:01+00:00,229.8614,4.7,13.92,47.84626,-54.09684
2020-12-28 19:29:01+00:00,234.7198,4.7,13.92,47.84626,-54.09684
2020-12-28 19:39:01+00:00,236.5614,4.7,13.92,47.84626,-54.09684
2020-12-28 19:49:01+00:00,239.2131,4.7,13.92,47.84626,-54.09684
2020-12-28 19:59:01+00:00,243.5598,4.7,13.92,47.84626,-54.09684
2020-12-28 20:09:01+00:00,250.2547,4.7,13.92,47.84626,-54.09684
2020-12-28 20:19:01+00:00,254.3297,4.7,13.44,47.84626,-54.09684
2020-12-28 20:29:01+00:00,259.5797,4.7,13.44,47.84626,-54.09684
2020-12-28 20:39:01+00:00,266.8347,4.7,13.44,47.84626,-54.09684
2020-12-28 20:49:01+00:00,273.3881,4.7,13.44,47.84626,-54.09684
2020-12-28 20:59:01+00:00,278.9997,4.7,13.44,47.84626,-54.09684
2020-12-28 21:09:01+00:00,285.5464,4.7,13.44,47.84626,-54.09684
2020-12-28 21:19:01+00:00,291.348,4.7,13.05,47.84626,-54.09684
2020-12-28 21:29:01+00:00,297.493,4.7,13.05,47.84626,-54.09684
2020-12-28 21:39:01+00:00,303.693,4.7,13.05,47.84626,-54.09684
2020-12-28 21:49:01+00:00,306.578,4.7,13.05,47.84626,-54.09684
2020-12-28 21:59:01+00:00,310.423,4.7,13.05,47.84626,-54.09684
2020-12-28 22:09:01+00:00,315.2463,4.7,13.05,47.84626,-54.09684
2020-12-28 22:19:01+00:00,322.2279,4.7,12.73,47.84626,-54.09684
2020-12-28 22:29:01+00:00,324.0779,4.7,12.73,47.84626,-54.09684
2020-12-28 22:39:01+00:00,327.0263,4.7,12.73,47.84626,-54.09684
2020-12-28 22:49:01+00:00,328.8746,4.7,12.73,47.84626,-54.09684
2020-12-28 22:59:01+00:00,331.8881,4.7,12.73,47.84626,-54.09684
2020-12-28 23:09:01+00:00,328.1046,4.7,12.73,47.84626,-54.09684
2020-12-28 23:19:01+00:00,323.7163,4.7,12.65,47.84626,-54.09684
2020-12-28 23:29:01+00:00,324.358,4.7,12.65,47.84626,-54.09684
2020-12-28 23:39:01+00:00,321.0297,4.7,12.65,47.84626,-54.09684
2020-12-28 23:49:01+00:00,315.1847,4.7,12.65,47.84626,-54.09684
2020-12-28 23:59:01+00:00,313.1063,4.7,12.65,47.84626,-54.09684
